Location: Chicago
(41.8500°N, 87.6500°W)
Time: 02:00:08
(UTC-05:00)

ISS - Visible Passes

Search period start: 01 October 2016 00:00
Search period end: 11 October 2016 00:00
Orbit: 400 x 410 km, 51.6° (Epoch: 01 October)

Date Brightness Start Highest point End Pass type
(mag) Time Alt. Az. Time Alt. Az. Time Alt. Az.
01 Oct -1.9 20:17:07 10° W 20:20:07 33° NNW 20:20:46 30° N visible
02 Oct -2.7 19:24:42 10° WSW 19:27:53 53° NNW 19:30:53 11° NE visible
02 Oct -0.2 21:02:40 10° NW 21:03:33 14° NW 21:03:33 14° NW visible
03 Oct -1.2 20:09:58 10° WNW 20:12:34 21° NNW 20:13:34 18° N visible
04 Oct -1.6 19:17:20 10° W 19:20:14 28° NNW 19:23:07 10° NE visible
04 Oct -0.2 20:55:31 10° NW 20:56:10 12° NNW 20:56:10 12° NNW visible
05 Oct -1.0 20:02:53 10° NW 20:05:03 16° N 20:06:02 15° NNE visible
06 Oct -1.1 19:10:10 10° WNW 19:12:37 19° NNW 19:15:05 10° NNE visible
06 Oct -0.2 20:48:01 10° NNW 20:48:31 12° NNW 20:48:31 12° NNW visible
07 Oct -0.9 19:55:36 10° NW 19:57:33 15° N 19:58:18 14° NNE visible
08 Oct -0.9 19:02:59 10° NW 19:05:03 16° N 19:07:07 10° NNE visible
08 Oct -0.3 20:40:06 10° NNW 20:40:43 13° NNW 20:40:43 13° NNW visible
09 Oct -1.1 19:47:55 10° NNW 19:49:59 16° N 19:50:29 15° NNE visible
10 Oct -0.9 18:55:32 10° NW 18:57:28 15° N 18:59:25 10° NE visible
10 Oct -0.6 20:31:59 10° NW 20:32:53 16° NNW 20:32:53 16° NNW visible
